Regional Weather Roundup
Issued by NWS

Home | Current Version | Previous Version | Text Only | Print | Product List | Glossary Off
Versions: 1 2 3 4 5 6 7 8 9 10 11 12 13 14 15 16 17 18 19 20 21 22 23 24 25 26 27 28 29 30 31 32 33 34 35 36 37 38 39 40 41 42 43 44 45 46 47 48 49 50

273
ASUS43 KMKX 212211
RWRWI

WISCONSIN REGIONAL WEATHER ROUNDUP
NATIONAL WEATHER SERVICE MILWAUKEE/SULLIVAN WI
400 PM CST WED FEB 21 2018

NOTE: "FAIR" INDICATES FEW OR NO CLOUDS BELOW 12,000 FEET WITH NO
SIGNIFICANT WEATHER AND/OR OBSTRUCTIONS TO VISIBILITY.

WIZ001-002-006>008-014>016-023>028-212300-
NORTHWEST WISCONSIN

CITY           SKY/WX    TMP DP  RH WIND       PRES   REMARKS
SUPERIOR ARPT  FAIR      23   6  48 SW9       30.57R WCI  13
ASHLAND        FAIR      22   6  50 SW12      30.58R WCI  10
HAYWARD        FAIR      21   3  45 SW9       30.56S WCI  11
SIREN          FAIR      20   1  44 SW7       30.60S WCI  11
CUMBERLAND     FAIR      16   3  57 S8        30.59R WCI   5
RICE LAKE      FAIR      18   5  55 SW6       30.62R WCI  10
CHETEK         FAIR      19   3  48 W6        30.61S WCI  11
LADYSMITH      FAIR      20   5  51 W6        30.60R WCI  12
EAU CLAIRE     FAIR      18   3  52 W6        30.62S WCI  10
MENOMONIE      FAIR      21   3  45 S5        30.63S WCI  15
NEW RICHMOND   FAIR      19   5  55 S8        30.62S WCI   8
OSCEOLA        FAIR      21   4  47 SW6       30.65S WCI  14
$$

WIZ003>005-009-010-017-018-212300-
NORTH CENTRAL WISCONSIN

CITY           SKY/WX    TMP DP  RH WIND       PRES   REMARKS
MANITOWISH WTR FAIR      19   8  62 SW9       30.52R WCI   7
ARBOR VITAE    FAIR      22  10  60 W7        30.52S WCI  13
WOODRUFF       FAIR      22  10  60 W7        30.52S WCI  13
RHINELANDER    FAIR      21   7  54 SW6       30.52S WCI  13
EAGLE RIVER    FAIR      20   5  52 W8        30.51S WCI  10
LAND O LAKES   FAIR      21   7  54 W7        30.52S WCI  13
PHILLIPS       FAIR      19   7  59 SW7       30.54S WCI   9
TOMAHAWK       FAIR      21   6  53 W5        30.55R WCI  14
MEDFORD        FAIR      17   6  59 SW7       30.56R WCI   8
MERRILL        FAIR      22  10  60 S8        30.57R WCI  12
$$

WIZ029-030-035-036-043>047-212300-
CENTRAL WISCONSIN

CITY           SKY/WX    TMP DP  RH WIND       PRES   REMARKS
WAUSAU         FAIR      18   7  62 W7        30.57R WCI   9
MOSINEE        MOSUNNY   19   7  58 W9        30.60R WCI   9
MARSHFIELD     FAIR      19   8  62 W5        30.57S WCI  12
STEVENS POINT  FAIR      19   6  57 W6        30.60S WCI  10
WAUPACA        FAIR      26   7  44 NW7       30.61S WCI  18
WAUTOMA        FAIR      25  12  58 VRB6      30.61S WCI  18
WISC RAPIDS    FAIR      23   9  55 NW5       30.60F WCI  17
CAMP DOUGLAS   MOSUNNY   25  12  58 NW5       30.61S WCI  19
$$

WIZ011>013-019>022-031-037>040-048>050-212300-
NORTHEAST WISCONSIN

CITY           SKY/WX    TMP DP  RH WIND       PRES   REMARKS
ANTIGO         FAIR      19  10  69 W9        30.54S WCI   7
SHAWANO        FAIR      27  10  48 W6        30.59S WCI  20
OCONTO         FAIR      26   9  47 W9        30.59S WCI  17
STURGEON BAY   FAIR      26  13  57 W9        30.60  WCI  17
GREEN BAY      FAIR      27  11  51 W8        30.60S WCI  19
MANITOWOC      FAIR      27  12  53 W8        30.61R WCI  19
APPLETON       MOSUNNY   25   5  42 NW8       30.58R WCI  16
CLINTONVILLE   FAIR      25   8  49 NW8       30.60R WCI  16
OSHKOSH        FAIR      26  10  50 NW7       30.60S WCI  18
$$

WIZ032>034-041-042-053>061-212300-
SOUTHWEST WISCONSIN

CITY           SKY/WX    TMP DP  RH WIND       PRES   REMARKS
LA CROSSE      FAIR      26  13  57 N5        30.63F WCI  20
SPARTA         FAIR      24  15  69 N5        30.63S WCI  18
VIROQUA        FAIR      22  15  73 CALM      30.59S
BOSCOBEL       FAIR      28   6  39 N5        30.63F WCI  23
PRAIRIE DU CHI FAIR      27   6  41 NW6       30.63S WCI  20
PLATTEVILLE    FAIR      27  14  59 N7        30.60S WCI  19
$$

WIZ056-057-062-063-064-067-068-212300-
SOUTH CENTRAL WISCONSIN

CITY           SKY/WX    TMP DP  RH WIND       PRES   REMARKS
REEDSBURG      FAIR      26  10  50 SW6       30.60S WCI  19
BARABOO/DELLS  FAIR      26   4  40 CALM      30.60S
LONE ROCK      FAIR      28  10  46 NW5       30.62S WCI  23
MINERAL POINT  FAIR      28  14  54 N3        30.58S
MADISON        PTSUNNY   26  10  50 VRB5      30.60F WCI  20
MIDDLETON      FAIR      27  12  52 N5        30.60S WCI  22
WATERTOWN      FAIR      25  12  58 NW5       30.59F WCI  19
MONROE         FAIR      28  18  64 N6        30.57S WCI  22
JANESVILLE     PTSUNNY   28  18  64 N5        30.59R WCI  23
$$

WIZ051-052-058>065-066-070>072-212300-
SOUTHEAST WISCONSIN

CITY           SKY/WX    TMP DP  RH WIND       PRES   REMARKS
MILWAUKEE      PTSUNNY   29  18  63 NE8       30.60R WCI  21
WAUKESHA       MOSUNNY   25  14  63 NW6       30.61R WCI  18
MILWAUKEE/TIMM SUNNY     27  14  59 N6        30.61R WCI  20
RACINE         FAIR      28  17  63 NE7       30.61S WCI  21
BURLINGTON     FAIR      27  15  59 N5        30.59S WCI  22
KENOSHA        FAIR      29  17  61 N5        30.59S WCI  24
FOND DU LAC    FAIR      26  10  50 CALM      30.60S
SHEBOYGAN      FAIR      26  13  57 W7        30.60S WCI  18
WEST BEND      FAIR      27  16  63 NW5       30.59S WCI  21
JUNEAU         FAIR      24  10  54 NW6       30.60F WCI  17
$$

LSZ147-162-212300-
LAKE SUPERIOR

STATION/POSITION TIME  TEMP    WIND        PRES    WAVE
                       AIR SEA DIR/SP/G            HT/PER
                 (UTC) (F)     (DEG/KT/KT) (MB)    (FT/S)
DEVILS ISLAND    2200   23     230/ 13/ 18 1035.8R
SAXON HARBOR     2140   25     240/  7/ 12 1034.9S
$$

LMZ867-665-643>646-212300-
LAKE MICHIGAN

STATION/POSITION TIME  TEMP    WIND        PRES    WAVE
                       AIR SEA DIR/SP/G            HT/PER
                 (UTC) (F)     (DEG/KT/KT) (MB)    (FT/S)
NORTHPORT PIER   2140   26                 1035.2R
KEWAUNEE LAKESHO 2142   27     310/  5/  8 1035.1R
SHEBOYGAN LAKESH 2200   25     290/  9/ 10 1037.3S
PORT WASHINGTON  2140   27     300/  4/ 10 1037.3S
MILWAUKEE LAKESH 2150   27      30/  6/  7   N/A
KENOSHA   LAKESH 2200   27      30/  7/  8 1035.9
$$

TC  - TEMPERATURE IN CELSIUS
VSB - VISIBILITY IN STATUTE MILES
WCI - WIND CHILL INDEX
HX  - HEAT INDEX





USA.gov is the U.S. government's official web portal to all federal, state and local government web resources and services.